Hourly Data Report for August 11, 2022

L'ASSOMPTION
QUEBEC
Current Station Operator: ECCC - MSC

45°48'34.000" N
73°26'05.000" W
21.00 m
7014160
71524
WEW

Download Data

Hourly Data (August 2022)
Hourly Data Report for August 11, 2022
TIME
LST
Temp Definition
°C
Dew Point Definition
°C
Rel Hum Definition
%
Precip. Amount Definition
mm

Wind Dir Definition
10's deg

Wind Spd Definition
km/h
Visibility Definition
km
Stn Press Definition
kPa
Hmdx Definition


Wind Chill Definition


Weather Definition


00:00 16.0 15.2 95 0.0   0   101.17     LegendNANA
01:00 15.9 14.9 94 0.0 23 1   101.14     LegendNANA
02:00 16.9 16.0 94 0.0 18 6   101.06     LegendNANA
03:00 15.8 15.1 96 0.0 0 1   101.02     LegendNANA
04:00 15.9 15.0 94 0.0 24 3   100.98     LegendNANA
05:00 15.7 14.7 94 0.0 24 2   100.97     LegendNANA
06:00 17.3 16.2 94 0.0 23 3   100.95     LegendNANA
07:00 18.2 16.6 90 0.0 23 5   100.97     LegendNANA
08:00 19.3 16.4 83 0.0 25 7   100.98     LegendNANA
09:00 19.4 16.1 82 0.0 22 7   100.99     LegendNANA
10:00 20.8 16.3 75 0.0 30 5   101.00 26   LegendNANA
11:00 22.5 17.1 72 0.0 13 3   100.98 28   LegendNANA
12:00 23.2 16.9 67 0.0 18 4   100.94 28   LegendNANA
13:00 24.7 17.2 63 0.0 14 4   100.90 30   LegendNANA
14:00 17.4 16.6 95 16.1 2 3   100.94     LegendNANA
15:00 23.1 16.7 68 0.0 1 2   100.88 28   LegendNANA
16:00 24.4 16.1 60 0.0 36 6   100.89 29   LegendNANA
17:00 24.2 16.2 61 0.0 29 3   100.91 29   LegendNANA
18:00 22.8 11.8 50 0.0 30 11   100.98 25   LegendNANA
19:00 20.5 11.4 56 0.0 31 10   101.10     LegendNANA
20:00 17.9 11.2 65 0.0 31 7   101.21     LegendNANA
21:00 16.7 10.8 68 0.0 29 3   101.28     LegendNANA
22:00 13.9 10.9 82 0.0 31 5   101.33     LegendNANA
23:00 14.8 11.2 79 0.0 33 1   101.40     LegendNANA

Notes on Data Quality.

Legend

  • E = Estimated
  • M = Missing
  • NA = Not Available*
  • [empty] = Indicates an unobserved value
Date modified: